Location: Dos Palmas
(32.4468°N, 116.8732°W)
Time: 01:29:29
(UTC+00:00)

Meteor 1-24 Rocket - Pass Details

Date: 31 October 2021
Orbit: 790 x 927 km, 81.3° (Epoch: 30 November)

Event Time Altitude Azimuth Distance (km) Brightness Sun altitude
Rises 11:25:00 0° 158° (SSE) 3,283 7.0 -34.0°
Reaches altitude 10° 11:27:39 10° 146° (SE) 2,369 6.3 -33.5°
Maximum altitude 11:32:06 27° 90° (E) 1,507 5.5 -32.6°
Drops below altitude 10° 11:36:39 10° 33° (NNE) 2,439 6.5 -31.6°
Sets 11:39:25 0° 22° (NNE) 3,400 7.1 -31.0°
